• In Hungary
  • List of Countries
  • For 7 days
  • Water Temperature
  • Satellite Maps
  • Weather Map
  • News
  • Weather Widgets
  • user-avatar
    Login

    Hourly Weather Blenheim

    Today, 22 November, Wednesday

    Time Temperature Precipitation Wind Pressure Humidity
    00:00 +13°C° 0 mm 2 mps 767 mmHg 96%
    01:00 +13°C° 0 mm 2 mps 767 mmHg 95%
    02:00 +13°C° 0 mm 2 mps 767 mmHg 95%
    03:00 +13°C° 0 mm 2 mps 767 mmHg 94%
    04:00 +13°C° 0 mm 2 mps 767 mmHg 92%
    05:00 +14°C° 0 mm 1 mps 767 mmHg 90%
    06:00 +14°C° 0 mm 1 mps 767 mmHg 85%
    07:00 +16°C° 0 mm 1 mps 767 mmHg 79%
    08:00 +19°C° 0 mm 1 mps 767 mmHg 72%
    09:00 +20°C° 0 mm 1 mps 767 mmHg 66%
    10:00 +22°C° 0 mm 1 mps 767 mmHg 63%
    11:00 +23°C° 0 mm 2 mps 767 mmHg 60%
    12:00 +24°C° 0 mm 2 mps 767 mmHg 57%
    13:00 +24°C° 0 mm 2 mps 767 mmHg 59%
    14:00 +24°C° 0 mm 3 mps 767 mmHg 61%
    15:00 +24°C° 0 mm 3 mps 766 mmHg 63%
    16:00 +22°C° 0 mm 3 mps 767 mmHg 67%
    17:00 +21°C° 0 mm 2 mps 767 mmHg 71%
    18:00 +20°C° 0 mm 2 mps 767 mmHg 76%
    19:00 +18°C° 0 mm 2 mps 767 mmHg 82%
    20:00 +16°C° 0 mm 1 mps 768 mmHg 88%
    21:00 +15°C° 0 mm 1 mps 768 mmHg 94%
    22:00 +15°C° 0 mm 1 mps 768 mmHg 94%
    23:00 +15°C° 0 mm 1 mps 768 mmHg 94%

    Tomorrow, 23 November, Thursday

    Time Temperature Precipitation Wind Pressure Humidity
    00:00 +15°C° 0 mm 1 mps 769 mmHg 93%
    01:00 +15°C° 0 mm 1 mps 769 mmHg 92%
    02:00 +14°C° 0 mm 1 mps 769 mmHg 91%
    03:00 +14°C° 0 mm 1 mps 768 mmHg 90%
    04:00 +15°C° 0 mm 1 mps 769 mmHg 88%
    05:00 +16°C° 0 mm 1 mps 769 mmHg 85%
    06:00 +16°C° 0 mm 1 mps 769 mmHg 83%
    07:00 +19°C° 0 mm 1 mps 769 mmHg 75%
    08:00 +22°C° 0 mm 1 mps 769 mmHg 68%
    09:00 +24°C° 0 mm 1 mps 769 mmHg 60%
    10:00 +24°C° 0 mm 2 mps 769 mmHg 59%
    11:00 +25°C° 0 mm 2 mps 769 mmHg 58%
    12:00 +26°C° 0 mm 3 mps 769 mmHg 56%
    13:00 +26°C° 0 mm 3 mps 769 mmHg 58%
    14:00 +26°C° 0 mm 3 mps 769 mmHg 59%
    15:00 +26°C° 0 mm 3 mps 769 mmHg 61%
    16:00 +25°C° 0.1 mm 3 mps 769 mmHg 65%
    17:00 +24°C° 0.1 mm 3 mps 769 mmHg 69%
    18:00 +21°C° 0.1 mm 3 mps 768 mmHg 73%
    19:00 +20°C° 0 mm 2 mps 769 mmHg 80%
    20:00 +18°C° 0 mm 2 mps 769 mmHg 87%
    21:00 +16°C° 0 mm 2 mps 769 mmHg 93%
    22:00 +16°C° 0 mm 1 mps 769 mmHg 93%
    23:00 +16°C° 0 mm 1 mps 769 mmHg 93%

    Day after tomorrow, 24 November, Friday

    Time Temperature Precipitation Wind Pressure Humidity
    00:00 +16°C° 0 mm 1 mps 769 mmHg 93%
    01:00 +16°C° 0 mm 1 mps 769 mmHg 93%
    02:00 +16°C° 0 mm 1 mps 769 mmHg 93%
    03:00 +16°C° 0 mm 1 mps 768 mmHg 92%
    04:00 +16°C° 0 mm 1 mps 768 mmHg 90%
    05:00 +18°C° 0 mm 1 mps 768 mmHg 88%
    06:00 +18°C° 0 mm 1 mps 768 mmHg 86%
    07:00 +20°C° 0 mm 2 mps 768 mmHg 76%
    08:00 +23°C° 0 mm 2 mps 768 mmHg 67%
    09:00 +25°C° 0 mm 3 mps 768 mmHg 57%
    10:00 +26°C° 0 mm 3 mps 768 mmHg 54%
    11:00 +27°C° 0 mm 4 mps 768 mmHg 50%
    12:00 +28°C° 0 mm 5 mps 767 mmHg 47%
    13:00 +28°C° 0 mm 5 mps 767 mmHg 48%
    14:00 +28°C° 0 mm 5 mps 766 mmHg 48%
    15:00 +28°C° 0 mm 5 mps 766 mmHg 49%
    16:00 +27°C° 0 mm 5 mps 766 mmHg 53%
    17:00 +26°C° 0 mm 5 mps 766 mmHg 57%
    18:00 +25°C° 0 mm 5 mps 766 mmHg 61%
    19:00 +22°C° 0 mm 4 mps 766 mmHg 66%
    20:00 +21°C° 0 mm 4 mps 766 mmHg 72%
    21:00 +19°C° 0 mm 4 mps 767 mmHg 77%
    22:00 +19°C° 0 mm 3 mps 767 mmHg 79%
    23:00 +18°C° 0 mm 2 mps 767 mmHg 81%

    25 November, Saturday

    Time Temperature Precipitation Wind Pressure Humidity
    00:00 +18°C° 0 mm 2 mps 767 mmHg 83%
    01:00 +18°C° 0 mm 2 mps 767 mmHg 86%
    02:00 +17°C° 0 mm 2 mps 767 mmHg 89%
    03:00 +17°C° 0 mm 2 mps 767 mmHg 93%
    04:00 +17°C° 0 mm 2 mps 767 mmHg 92%
    05:00 +17°C° 0 mm 2 mps 767 mmHg 92%
    06:00 +17°C° 0 mm 2 mps 767 mmHg 91%
    07:00 +18°C° 0 mm 3 mps 768 mmHg 87%
    08:00 +19°C° 0 mm 3 mps 768 mmHg 83%
    09:00 +20°C° 0 mm 3 mps 768 mmHg 79%
    10:00 +20°C° 0 mm 3 mps 768 mmHg 78%
    11:00 +20°C° 0 mm 3 mps 768 mmHg 78%
    12:00 +20°C° 0 mm 4 mps 768 mmHg 77%
    13:00 +21°C° 0.1 mm 4 mps 768 mmHg 76%
    14:00 +21°C° 0.1 mm 4 mps 767 mmHg 76%
    15:00 +21°C° 0.1 mm 4 mps 767 mmHg 75%
    16:00 +21°C° 0.1 mm 4 mps 767 mmHg 78%
    17:00 +20°C° 0.1 mm 4 mps 767 mmHg 81%
    18:00 +19°C° 0.1 mm 4 mps 767 mmHg 84%
    19:00 +18°C° 0.1 mm 4 mps 768 mmHg 88%
    20:00 +17°C° 0.1 mm 3 mps 768 mmHg 92%
    21:00 +16°C° 0.1 mm 3 mps 769 mmHg 97%
    22:00 +16°C° 0 mm 3 mps 769 mmHg 97%
    23:00 +16°C° 0 mm 3 mps 769 mmHg 97%

    26 November, Sunday

    Time Temperature Precipitation Wind Pressure Humidity
    00:00 +16°C° 0 mm 3 mps 769 mmHg 97%
    01:00 +14°C° 0 mm 3 mps 768 mmHg 97%
    02:00 +14°C° 0 mm 3 mps 768 mmHg 96%
    03:00 +14°C° 0 mm 3 mps 768 mmHg 96%
    04:00 +14°C° 0 mm 3 mps 768 mmHg 95%
    05:00 +16°C° 0 mm 3 mps 768 mmHg 94%
    06:00 +16°C° 0 mm 3 mps 768 mmHg 93%
    07:00 +17°C° 0 mm 3 mps 769 mmHg 87%
    08:00 +18°C° 0 mm 4 mps 769 mmHg 82%
    09:00 +19°C° 0 mm 4 mps 769 mmHg 76%
    10:00 +19°C° 0 mm 4 mps 769 mmHg 73%
    11:00 +20°C° 0 mm 4 mps 769 mmHg 70%
    12:00 +21°C° 0 mm 4 mps 769 mmHg 67%
    13:00 +21°C° 0 mm 4 mps 768 mmHg 68%
    14:00 +21°C° 0 mm 4 mps 768 mmHg 69%
    15:00 +20°C° 0 mm 5 mps 768 mmHg 70%
    16:00 +20°C° 0 mm 4 mps 768 mmHg 74%
    17:00 +19°C° 0 mm 4 mps 768 mmHg 78%
    18:00 +18°C° 0 mm 4 mps 768 mmHg 82%
    19:00 +17°C° 0 mm 3 mps 768 mmHg 86%
    20:00 +16°C° 0 mm 3 mps 769 mmHg 91%
    21:00 +14°C° 0 mm 3 mps 769 mmHg 95%
    22:00 +14°C° 0 mm 3 mps 769 mmHg 95%
    23:00 +15°C° 0 mm 2 mps 769 mmHg 95%

    27 November, Monday

    Time Temperature Precipitation Wind Pressure Humidity
    00:00 +15°C° 0 mm 2 mps 769 mmHg 94%
    01:00 +15°C° 0 mm 2 mps 769 mmHg 93%
    02:00 +15°C° 0 mm 2 mps 768 mmHg 92%
    03:00 +15°C° 0 mm 1 mps 768 mmHg 90%
    04:00 +15°C° 0 mm 1 mps 768 mmHg 88%
    05:00 +16°C° 0 mm 1 mps 768 mmHg 85%
    06:00 +16°C° 0 mm 1 mps 769 mmHg 83%
    07:00 +19°C° 0 mm 1 mps 769 mmHg 75%
    08:00 +22°C° 0 mm 1 mps 769 mmHg 68%
    09:00 +24°C° 0 mm 1 mps 769 mmHg 61%
    10:00 +24°C° 0.1 mm 2 mps 769 mmHg 59%
    11:00 +25°C° 0.1 mm 3 mps 769 mmHg 57%
    12:00 +26°C° 0.1 mm 3 mps 769 mmHg 55%
    13:00 +26°C° 0.2 mm 3 mps 769 mmHg 57%
    14:00 +26°C° 0.2 mm 4 mps 769 mmHg 58%
    15:00 +26°C° 0.2 mm 4 mps 768 mmHg 59%
    16:00 +25°C° 0.3 mm 4 mps 769 mmHg 63%
    17:00 +24°C° 0.3 mm 3 mps 769 mmHg 67%
    18:00 +22°C° 0.3 mm 3 mps 769 mmHg 71%
    19:00 +21°C° 0.2 mm 3 mps 769 mmHg 78%
    20:00 +19°C° 0.2 mm 3 mps 769 mmHg 85%
    21:00 +17°C° 0.2 mm 3 mps 770 mmHg 92%
    22:00 +17°C° 0 mm 3 mps 770 mmHg 93%
    23:00 +17°C° 0 mm 3 mps 770 mmHg 93%
    Show more